[[{"header":{"parameterUnit":"m.s-1","parameterCategory":1,"la1":30.2991,"la2":30.254,"lo1":-89.0895,"lo2":-89.0444,"dy":0.0017,"dx":0.0017,"nx":28,"ny":28,"refTime":"2024-10-02T09:00:00:Z","depth":0,"parameterNumber":2,"parameterNumberName":"U-component_of_WINDS"},"data":[0,0,0,0,0,0,0,0,0,0,0,0,0,0,0,0,0,0,0,0,0,0,0,0,0,0,0,0,0,0,0,0,0,0,0,0,0,0,0,0,0,0,0,0,0,0,0,0,0,0,0,0,0,0,0,0,0,0,-6.3634,-6.3635,0,-6.3731,-6.3732,-6.3733,-6.3624,-6.362,-6.3616,-6.3612,-6.3708,-6.3714,-6.372,0,0,0,0,0,0,0,0,0,0,0,0,0,-6.3349,-6.3355,-6.3634,-6.3635,-6.3636,-6.3731,-6.3732,-6.3734,-6.3625,-6.362,-6.3615,-6.361,-6.3706,-6.3713,-6.3721,0,0,0,0,0,0,0,0,0,0,0,0,0,-6.3462,-6.3357,-6.3634,-6.3594,-6.3591,-6.3731,-6.3732,-6.3734,-6.3626,-6.362,-6.3614,-6.3608,-6.3703,-6.3712,-6.3722,-6.3904,0,0,-6.3751,-6.3755,0,0,0,0,0,0,0,0,-6.3456,-6.3473,-6.3598,-6.3597,-6.3594,-6.3659,-6.3667,-6.3791,-6.3628,-6.3613,-6.3612,-6.3605,-6.3696,-6.3706,-6.3738,-6.3909,-6.3913,-6.3752,-6.3758,-6.3762,-6.3765,0,0,0,0,0,0,0,-6.3448,-6.3468,-6.3672,-6.36,-6.3598,-6.3569,-6.3578,-6.369,-6.3688,-6.3614,-6.3606,-6.3619,-6.3694,-6.3729,-6.3739,-6.3914,-6.3752,-6.376,-6.3766,-6.377,-6.4237,-6.4243,0,0,0,0,0,0,-6.3445,-6.3462,-6.3669,-6.3675,-6.3508,-6.3579,-6.359,-6.3645,-6.3686,-6.3687,-6.3624,-6.3614,-6.3715,-6.3728,-6.3742,-6.3956,-6.3762,-6.3771,-6.3776,-6.423,-6.4238,-6.4246,0,0,0,0,0,0,-6.344,-6.3465,-6.3665,-6.3567,-6.359,-6.3591,-6.3653,-6.365,-6.3684,-6.3695,-6.3693,-6.3661,-6.3711,-6.3729,-6.3864,-6.3958,-6.3775,-6.3784,-6.4222,-6.4233,-6.4242,-6.4387,0,0,0,0,0,0,-6.3432,-6.3464,-6.3534,-6.3569,-6.3596,-6.3788,-6.3659,-6.3656,-6.3702,-6.3689,-6.3728,-6.3729,-6.3708,-6.3851,-6.3874,-6.3968,-6.3791,-6.4214,-6.4227,-6.4239,-6.4374,-6.4401,-6.4424,0,0,0,0,0,-6.3422,-6.3571,-6.3539,-6.3564,-6.3684,-6.3794,-6.3809,-6.3782,-6.371,-6.378,-6.3786,-6.3727,-6.3945,-6.3866,-6.3891,-6.3989,-6.4208,-6.4223,-6.4238,-6.4363,-6.4396,-6.4424,0,0,0,0,0,0,-6.3546,-6.3575,-6.3539,-6.3704,-6.3747,-6.3775,-6.3862,-6.3819,-6.3882,-6.3867,-6.3831,-6.3841,-6.3985,-6.4001,-6.3912,-6.4166,-6.4064,-6.4085,-6.4151,-6.4182,-6.4206,-6.4198,-6.3799,0,0,0,0,0,-6.3593,-6.3681,-6.3701,-6.3844,-6.3868,-6.3862,-6.3909,-6.3885,-6.3927,-6.3945,-6.3961,-6.4004,-6.4081,-6.4132,-6.4205,-6.4377,-6.4382,-6.4457,-6.4482,-6.4502,-6.452,-6.4609,-6.4641,-6.4295,-6.4295,-6.4295,0,0,-6.369,-6.3716,-6.3774,-6.387,-6.39,-6.399,-6.3878,-6.3978,-6.4044,-6.396,-6.4088,-6.4102,-6.4147,-6.4301,-6.437,-6.4319,-6.4617,-6.4521,-6.4537,-6.4544,-6.4628,-6.4661,-6.469,-6.4305,-6.4303,-6.4302,0,0,-6.3911,-6.3942,-6.4063,-6.4097,-6.4145,-6.414,-6.417,-6.4204,-6.421,-6.4339,-6.4277,-6.4354,-6.4489,-6.4523,-6.4558,-6.4792,-6.474,-6.4817,-6.4946,-6.5034,-6.5061,-6.5085,-6.5166,-6.5196,-6.4835,-6.4835,-6.4835,0,-6.4025,-6.416,-6.4131,-6.4236,-6.4278,-6.4208,-6.4329,-6.4362,-6.4432,-6.4462,-6.4404,-6.4571,-6.4596,-6.4756,-6.4813,-6.4845,-6.4875,-6.4811,-6.506,-6.5084,-6.5105,-6.5182,-6.5213,-6.4844,-6.4843,-6.4842,-6.4841,0,-6.4296,-6.439,-6.4482,-6.4551,-6.4604,-6.4717,-6.4704,-6.4761,-6.4733,-6.4733,-6.4864,-6.4892,-6.4968,-6.5004,-6.4978,-6.516,-6.5127,-6.5066,-6.4961,-6.5148,-6.5219,-6.5248,-6.4856,-6.4853,-6.4851,-6.4848,0,0,-6.4597,-6.4649,-6.4683,-6.4712,-6.4761,-6.4832,-6.494,-6.5015,-6.5064,-6.5114,-6.5202,-6.5318,-6.5261,-6.5301,-6.5277,-6.5355,-6.5535,-6.5283,-6.5283,-6.5327,-6.5735,-6.5778,-6.5813,-6.5502,-6.5507,-6.5512,-6.573,0,-6.4817,-6.5006,-6.4984,-6.5164,-6.5248,-6.5183,-6.5277,-6.5315,-6.5319,-6.539,-6.5393,-6.5475,-6.5395,-6.5418,-6.5492,-6.5497,-6.5616,-6.5482,-6.558,-6.5584,-6.5569,-6.585,-6.5897,-6.6102,-6.5758,-6.5762,-6.5766,0,-6.5099,-6.516,-6.5349,-6.5382,-6.5417,-6.5502,-6.5568,-6.5638,-6.568,-6.5676,-6.5721,-6.5683,-6.579,-6.5686,-6.5831,-6.574,-6.5779,-6.5788,-6.5795,-6.5801,-6.5684,-6.5861,-6.6167,-6.6196,-6.581,-6.5806,-6.5803,0,-6.5296,-6.5426,-6.5554,-6.5582,-6.5625,-6.5686,-6.5707,-6.5743,-6.5788,-6.5846,-6.5875,-6.5944,-6.5981,-6.6034,-6.6015,-6.5942,-6.6163,-6.6058,-6.6161,-6.6162,-6.6208,-6.6205,-6.6521,-6.6239,-6.6239,-6.6238,-6.6237,0,-6.5543,-6.566,-6.5643,-6.5722,-6.5851,-6.5823,-6.5951,-6.5963,-6.5996,-6.6074,-6.6022,-6.6097,-6.6069,-6.6141,-6.6128,-6.6248,-6.6266,-6.6264,-6.6258,-6.6267,-6.6267,-6.629,-6.6274,-6.6246,-6.6244,-6.6243,-6.6241,0,-6.5783,-6.5777,-6.5913,-6.5943,-6.5953,-6.6046,-6.6071,-6.6144,-6.6144,-6.6244,-6.6266,-6.6265,-6.6347,-6.6334,-6.6426,-6.6416,-6.6566,-6.6544,-6.6552,-6.6546,-6.6648,-6.6638,-6.6988,-6.7031,-6.6724,-6.6727,-6.673,0,-6.594,-6.6028,-6.6068,-6.6118,-6.6143,-6.6223,-6.627,-6.6246,-6.6296,-6.635,-6.6416,-6.6495,-6.6555,-6.669,-6.6696,-6.6766,-6.6743,-6.6862,-6.6753,-6.6758,-6.6741,-6.6735,-6.6742,-6.6882,-6.6885,-6.6888,-6.6891,0,-6.6217,-6.6209,-6.6279,-6.6348,-6.6406,-6.6459,-6.6506,-6.6549,-6.6529,-6.6589,-6.6673,-6.672,-6.6814,-6.6891,-6.6956,-6.6975,-6.6929,-6.6925,-6.6952,-6.696,-6.6959,-6.6958,-6.6607,-6.6916,-6.6914,-6.6912,-6.6911,-6.6909,-6.6417,-6.6492,-6.6532,-6.6611,-6.6644,-6.669,-6.6759,-6.6768,-6.6838,-6.6913,-6.6895,-6.699,-6.7027,-6.711,-6.7136,-6.7208,-6.7164,-6.7204,-6.7214,-6.7223,-6.7234,-6.6951,-6.7221,-6.722,-6.7219,-6.7218,-6.7218,0,-6.6689,-6.6711,-6.6784,-6.6852,-6.6914,-6.6868,-6.6918,-6.6972,-6.7057,-6.7097,-6.7158,-6.7254,-6.7328,-6.7341,-6.7411,-6.7467,-6.7447,-6.7486,-6.7479,-6.7484,-6.7271,-6.7239,-6.75,-6.75,-6.75,-6.75,-6.75,-6.75,-6.6837,-6.696,-6.6957,-6.7096,-6.7117,-6.721,-6.7242,-6.7283,-6.7314,-6.7424,-6.7486,-6.7495,-6.7523,-6.7595,-6.766,-6.7662,-6.7689,-6.7735,-6.7728,-6.7528,-6.7499,-6.7472,-6.7442,-6.7742,-6.7742,-6.7935,-6.7937,-6.7938]},{"header":{"parameterUnit":"m.s-1","parameterCategory":1,"la1":30.2991,"la2":30.254,"lo1":-89.0895,"lo2":-89.0444,"dy":0.0017,"dx":0.0017,"nx":28,"ny":28,"refTime":"2024-10-02T09:00:00:Z","depth":0,"parameterNumber":3,"parameterNumberName":"V-component_of_WINDS"},"data":[0,0,0,0,0,0,0,0,0,0,0,0,0,0,0,0,0,0,0,0,0,0,0,0,0,0,0,0,0,0,0,0,0,0,0,0,0,0,0,0,0,0,0,0,0,0,0,0,0,0,0,0,0,0,0,0,0,0,0.2838,0.2837,0,0.2742,0.2741,0.274,0.2726,0.2727,0.2727,0.2728,0.2625,0.2622,0.2619,0,0,0,0,0,0,0,0,0,0,0,0,0,0.3006,0.3003,0.2838,0.2837,0.2836,0.2743,0.2741,0.274,0.2726,0.2727,0.2728,0.2729,0.2627,0.2622,0.2618,0,0,0,0,0,0,0,0,0,0,0,0,0,0.2924,0.3002,0.2838,0.2818,0.2815,0.2743,0.2741,0.274,0.2725,0.2727,0.2728,0.2729,0.2628,0.2623,0.2618,0.2558,0,0,0.2601,0.2599,0,0,0,0,0,0,0,0,0.2929,0.2918,0.2822,0.2819,0.2816,0.2747,0.2763,0.2679,0.2725,0.2759,0.2728,0.273,0.2665,0.2656,0.2635,0.2554,0.2549,0.2601,0.2598,0.2595,0.2594,0,0,0,0,0,0,0,0.2934,0.2922,0.28,0.282,0.2817,0.2812,0.2802,0.2747,0.2705,0.2756,0.2755,0.2744,0.2663,0.2641,0.2633,0.2548,0.2601,0.2596,0.2593,0.2591,0.2414,0.2412,0,0,0,0,0,0,0.2944,0.2927,0.2803,0.2797,0.2877,0.2808,0.2797,0.2768,0.2706,0.2698,0.2743,0.2744,0.2649,0.2639,0.2629,0.2557,0.2595,0.259,0.2587,0.2415,0.2413,0.2412,0,0,0,0,0,0,0.2948,0.2933,0.2807,0.2862,0.2845,0.2804,0.2772,0.2765,0.2743,0.2696,0.2688,0.2728,0.265,0.2637,0.2577,0.2553,0.2588,0.2583,0.2417,0.2415,0.2413,0.2411,0,0,0,0,0,0,0.2953,0.2935,0.2912,0.2861,0.2842,0.2757,0.277,0.2762,0.2734,0.2734,0.268,0.2672,0.265,0.2585,0.2571,0.2546,0.2579,0.2419,0.2416,0.2413,0.2413,0.2409,0.2405,0,0,0,0,0,0.2959,0.2914,0.2911,0.2896,0.2814,0.2756,0.2745,0.2721,0.2732,0.2709,0.268,0.2674,0.2558,0.2579,0.2564,0.2536,0.242,0.2417,0.2414,0.2414,0.2409,0.2405,0,0,0,0,0,0,0.2961,0.2907,0.2903,0.2841,0.2803,0.2753,0.2723,0.2717,0.2674,0.2675,0.2647,0.2635,0.2577,0.255,0.2575,0.2477,0.249,0.2483,0.2496,0.2491,0.2487,0.2494,0.2574,0,0,0,0,0,0.2955,0.2914,0.2868,0.2817,0.2799,0.2765,0.2738,0.2724,0.2683,0.2667,0.2633,0.2592,0.2547,0.2517,0.2473,0.2409,0.2397,0.2383,0.2379,0.2377,0.2371,0.2337,0.233,0.2401,0.2401,0.2401,0,0,0.2941,0.2906,0.2881,0.2817,0.2786,0.2744,0.2751,0.2705,0.2673,0.2659,0.2601,0.2575,0.2528,0.2466,0.2437,0.2443,0.2349,0.2372,0.237,0.2366,0.2332,0.2326,0.232,0.2398,0.2399,0.2399,0,0,0.2893,0.2863,0.2818,0.2788,0.2742,0.272,0.2709,0.2661,0.2643,0.2585,0.2575,0.2535,0.2457,0.2425,0.2398,0.2341,0.2334,0.2327,0.2307,0.2274,0.2268,0.2263,0.2243,0.2237,0.2322,0.2322,0.2322,0,0.2881,0.2817,0.2795,0.2751,0.2723,0.2711,0.2665,0.2636,0.2578,0.2558,0.2566,0.247,0.2437,0.2368,0.2355,0.2333,0.232,0.2333,0.2271,0.2266,0.2261,0.2241,0.2234,0.2321,0.2321,0.2321,0.2321,0,0.2804,0.276,0.273,0.2676,0.2645,0.2599,0.2571,0.2541,0.253,0.2507,0.2449,0.241,0.2358,0.2341,0.2328,0.227,0.2275,0.2277,0.229,0.2254,0.2235,0.2228,0.2321,0.2321,0.2321,0.2321,0,0,0.2754,0.2691,0.268,0.2656,0.2605,0.257,0.2525,0.2476,0.2452,0.2413,0.2374,0.2309,0.2312,0.2282,0.2266,0.2237,0.2195,0.2242,0.2241,0.2235,0.2129,0.2128,0.212,0.2191,0.2189,0.2188,0.2134,0,0.27,0.2621,0.2601,0.2533,0.2492,0.2481,0.2442,0.2406,0.2384,0.2346,0.232,0.2276,0.2282,0.2264,0.2235,0.2206,0.2173,0.221,0.2153,0.2152,0.2166,0.211,0.2108,0.2059,0.2126,0.2125,0.2124,0,0.2627,0.2589,0.2517,0.2474,0.2456,0.2421,0.2376,0.2339,0.2299,0.2285,0.2253,0.224,0.2192,0.2208,0.2142,0.2167,0.2143,0.2126,0.2123,0.2117,0.2135,0.2102,0.2043,0.2036,0.2112,0.2113,0.2114,0,0.2598,0.2528,0.2477,0.2456,0.2404,0.238,0.2357,0.2318,0.2291,0.2251,0.2233,0.2187,0.2162,0.2127,0.2103,0.2117,0.2038,0.2052,0.2025,0.2026,0.2008,0.201,0.1944,0.1993,0.1993,0.1993,0.1993,0,0.2541,0.2497,0.2463,0.2431,0.2383,0.2361,0.2312,0.2289,0.2255,0.2218,0.2205,0.2171,0.2141,0.2102,0.2082,0.2031,0.2019,0.2006,0.2001,0.2007,0.2009,0.1991,0.1993,0.1991,0.1992,0.1992,0.1992,0,0.25,0.2475,0.2418,0.2375,0.2363,0.2329,0.2291,0.226,0.2238,0.2192,0.218,0.2145,0.2099,0.2072,0.2012,0.1999,0.1942,0.1939,0.1957,0.1954,0.1929,0.1932,0.1849,0.1837,0.1894,0.1894,0.1893,0,0.2464,0.2431,0.2385,0.2361,0.2338,0.2298,0.2271,0.2248,0.222,0.2173,0.2147,0.2101,0.2063,0.1989,0.1958,0.1913,0.1909,0.1883,0.1902,0.1909,0.1909,0.1911,0.1908,0.188,0.1879,0.1879,0.1879,0,0.2405,0.2395,0.2357,0.2316,0.2284,0.225,0.2215,0.2195,0.2167,0.2136,0.209,0.206,0.2002,0.1956,0.1909,0.1884,0.1876,0.1873,0.1865,0.187,0.1882,0.1876,0.1948,0.1875,0.1875,0.1875,0.1876,0.1876,0.2366,0.2336,0.23,0.2259,0.2231,0.22,0.2169,0.2145,0.2106,0.2058,0.2047,0.1998,0.196,0.1897,0.1871,0.1833,0.1837,0.1824,0.1821,0.1818,0.1818,0.1889,0.1824,0.1824,0.1824,0.1824,0.1824,0,0.2306,0.2283,0.2245,0.2199,0.2166,0.2164,0.2127,0.2099,0.2058,0.2024,0.1987,0.1935,0.1891,0.1857,0.1812,0.1788,0.1783,0.1777,0.1778,0.1773,0.1816,0.1829,0.1781,0.1781,0.1781,0.1781,0.1781,0.1782,0.2271,0.2222,0.2208,0.2145,0.2122,0.2076,0.2055,0.2026,0.1999,0.1942,0.1906,0.1885,0.1851,0.1804,0.1764,0.1755,0.1739,0.1733,0.1724,0.1765,0.177,0.1774,0.1785,0.173,0.173,0.1684,0.1683,0.1683]}]]